BAW923 EDDL-EGLL

Flight info

Callsign BAW923
Flight time 1h 0m
Altitude 18000
Route NETEX4Z NETEX Z282 DIBIR L179 ROMIN/N0438F320 L179 SASKI L608 LOGAN LOGAN2H
Aircraft A320/M-SDE3FGIJ1KRWXY/SB1

Departure

Time 2026-05-07 20:52
Airport Düsseldorf Airport (EDDL)

Arrival

Time 2026-05-07 21:53
Airport London Heathrow Airport (EGLL)
Time Latitude Longitude Altitude Speed Heading
2026-05-07 20:21 51.27610 6.76201 131 ft 0 kts 44°
2026-05-07 20:41 51.27606 6.76193 126 ft 4 kts 45°
2026-05-07 20:42 51.27587 6.76164 126 ft 4 kts 45°
2026-05-07 20:42 51.27571 6.76139 127 ft 4 kts 40°
2026-05-07 20:42 51.27549 6.76119 126 ft 4 kts
2026-05-07 20:42 51.27526 6.76122 126 ft 2 kts 333°
2026-05-07 20:43 51.27524 6.76123 130 ft 0 kts 333°
2026-05-07 20:47 51.27527 6.76120 125 ft 2 kts 333°
2026-05-07 20:48 51.27546 6.76105 128 ft 5 kts 333°
2026-05-07 20:48 51.27580 6.76077 128 ft 6 kts 333°
2026-05-07 20:48 51.27608 6.76055 127 ft 8 kts 333°
2026-05-07 20:48 51.27671 6.76039 127 ft 11 kts 360°
2026-05-07 20:49 51.27759 6.76043 130 ft 14 kts
2026-05-07 20:49 51.27841 6.76010 128 ft 12 kts 301°
2026-05-07 20:49 51.27848 6.75851 130 ft 16 kts 279°
2026-05-07 20:49 51.27862 6.75674 127 ft 12 kts 274°
2026-05-07 20:50 51.27925 6.75580 123 ft 13 kts 334°
2026-05-07 20:50 51.27981 6.75536 126 ft 7 kts 334°
2026-05-07 20:50 51.27987 6.75531 125 ft 0 kts 334°
2026-05-07 20:51 51.28004 6.75518 125 ft 6 kts 334°
2026-05-07 20:51 51.28066 6.75477 123 ft 12 kts 336°
2026-05-07 20:51 51.28105 6.75502 122 ft 0 kts 54°
2026-05-07 20:51 51.28106 6.75504 122 ft 2 kts 54°
2026-05-07 20:52 51.28193 6.75689 128 ft 56 kts 52°
2026-05-07 20:52 51.28584 6.76505 124 ft 125 kts 53°
2026-05-07 20:52 51.29205 6.77794 405 ft 153 kts 52°
2026-05-07 20:52 51.29850 6.79150 1212 ft 154 kts 53°
2026-05-07 20:53 51.30525 6.80576 1721 ft 171 kts 53°
2026-05-07 20:53 51.31288 6.82197 2054 ft 194 kts 53°
2026-05-07 20:53 51.32154 6.84035 2453 ft 219 kts 53°
2026-05-07 20:53 51.33125 6.86085 2947 ft 243 kts 52°
2026-05-07 20:54 51.34161 6.88328 3726 ft 255 kts 52°
2026-05-07 20:54 51.35451 6.90240 4679 ft 261 kts 28°
2026-05-07 20:54 51.37221 6.91021 5689 ft 264 kts
2026-05-07 20:54 51.39022 6.91409 6706 ft 266 kts
2026-05-07 20:55 51.40884 6.91895 7629 ft 271 kts
2026-05-07 20:55 51.42759 6.92415 8524 ft 276 kts
2026-05-07 20:55 51.44645 6.92940 9387 ft 282 kts
2026-05-07 20:55 51.46611 6.93163 10196 ft 287 kts 353°
2026-05-07 20:56 51.48544 6.92320 10887 ft 295 kts 334°
2026-05-07 20:56 51.50259 6.90345 11172 ft 316 kts 311°
2026-05-07 20:56 51.51432 6.87271 11558 ft 331 kts 290°
2026-05-07 20:56 51.52244 6.83768 12240 ft 337 kts 290°
2026-05-07 20:57 51.53075 6.80228 13006 ft 341 kts 290°
2026-05-07 20:57 51.53925 6.76659 13783 ft 344 kts 290°
2026-05-07 20:57 51.54755 6.73037 14465 ft 347 kts 285°
2026-05-07 20:57 51.55177 6.69214 15114 ft 350 kts 272°
2026-05-07 20:58 51.55049 6.65303 15773 ft 353 kts 259°
2026-05-07 20:58 51.54378 6.61503 16429 ft 355 kts 247°
2026-05-07 20:58 51.53276 6.57932 17093 ft 359 kts 242°
2026-05-07 20:58 51.52119 6.54362 17753 ft 362 kts 243°
2026-05-07 20:59 51.50957 6.50764 18411 ft 365 kts 243°
2026-05-07 20:59 51.49784 6.47132 19000 ft 368 kts 243°
2026-05-07 20:59 51.48603 6.43472 19608 ft 371 kts 243°
2026-05-07 20:59 51.47343 6.39846 20203 ft 374 kts 236°
2026-05-07 21:00 51.45676 6.36629 20778 ft 377 kts 225°
2026-05-07 21:00 51.43613 6.34005 21351 ft 381 kts 213°
2026-05-07 21:00 51.41232 6.32089 21898 ft 386 kts 202°
2026-05-07 21:00 51.38701 6.30597 22428 ft 389 kts 201°
2026-05-07 21:01 51.36196 6.28944 22953 ft 391 kts 209°
2026-05-07 21:01 51.33904 6.26603 23463 ft 392 kts 220°
2026-05-07 21:01 51.31928 6.23609 23951 ft 393 kts 230°
2026-05-07 21:01 51.30338 6.20052 24402 ft 394 kts 241°
2026-05-07 21:02 51.29013 6.16212 24844 ft 396 kts 242°
2026-05-07 21:02 51.27675 6.12351 25322 ft 398 kts 242°
2026-05-07 21:02 51.26355 6.08453 25757 ft 400 kts 243°
2026-05-07 21:02 51.25067 6.04495 26194 ft 402 kts 243°
2026-05-07 21:03 51.23812 6.00496 26613 ft 405 kts 246°
2026-05-07 21:03 51.22874 5.96255 27027 ft 407 kts 256°
2026-05-07 21:03 51.22391 5.91800 27452 ft 409 kts 264°
2026-05-07 21:03 51.22266 5.87257 27866 ft 412 kts 267°
2026-05-07 21:04 51.22165 5.82668 28303 ft 414 kts 267°
2026-05-07 21:04 51.22054 5.78071 28727 ft 417 kts 267°
2026-05-07 21:04 51.21937 5.73443 29150 ft 419 kts 267°
2026-05-07 21:04 51.21815 5.68787 29550 ft 421 kts 267°
2026-05-07 21:05 51.21692 5.64111 29987 ft 423 kts 267°
2026-05-07 21:05 51.21569 5.59412 30361 ft 425 kts 267°
2026-05-07 21:05 51.21436 5.54690 30707 ft 427 kts 266°
2026-05-07 21:05 51.21286 5.49953 31067 ft 429 kts 266°
2026-05-07 21:06 51.21124 5.45211 31559 ft 428 kts 266°
2026-05-07 21:06 51.20956 5.40479 31966 ft 427 kts 266°
2026-05-07 21:06 51.20787 5.35766 32062 ft 422 kts 266°
2026-05-07 21:07 51.20465 5.26577 32089 ft 412 kts 266°
2026-05-07 21:07 51.20152 5.17485 32089 ft 410 kts 266°
2026-05-07 21:08 51.19827 5.08423 32088 ft 409 kts 266°
2026-05-07 21:08 51.19488 4.99420 32090 ft 409 kts 266°
2026-05-07 21:09 51.19196 4.90362 32090 ft 409 kts 267°
2026-05-07 21:09 51.18943 4.81298 32091 ft 409 kts 267°
2026-05-07 21:10 51.18641 4.72239 32101 ft 409 kts 266°
2026-05-07 21:10 51.18295 4.63180 32117 ft 409 kts 266°
2026-05-07 21:11 51.17945 4.54123 32119 ft 409 kts 266°
2026-05-07 21:11 51.17406 4.40555 32116 ft 409 kts 266°
2026-05-07 21:12 51.17034 4.31507 32114 ft 409 kts 266°
2026-05-07 21:12 51.16694 4.22460 32106 ft 409 kts 269°
2026-05-07 21:13 51.17597 4.13542 32098 ft 411 kts 287°
2026-05-07 21:13 51.19529 4.04952 32091 ft 411 kts 288°
2026-05-07 21:14 51.21450 3.96362 32084 ft 411 kts 288°
2026-05-07 21:14 51.23360 3.87754 32080 ft 412 kts 288°
2026-05-07 21:15 51.25268 3.79139 32082 ft 412 kts 288°
2026-05-07 21:15 51.27171 3.70520 32079 ft 412 kts 288°
2026-05-07 21:16 51.29059 3.61939 32092 ft 412 kts 288°
2026-05-07 21:16 51.30948 3.53304 32096 ft 412 kts 287°
2026-05-07 21:17 51.32827 3.44665 32097 ft 411 kts 287°
2026-05-07 21:17 51.34697 3.36024 32092 ft 411 kts 287°
2026-05-07 21:18 51.36665 3.27422 32102 ft 412 kts 289°
2026-05-07 21:18 51.38731 3.18882 32101 ft 412 kts 289°
2026-05-07 21:19 51.40786 3.10325 32097 ft 412 kts 289°
2026-05-07 21:19 51.42808 3.01750 32099 ft 411 kts 289°
2026-05-07 21:20 51.44813 2.93162 32098 ft 411 kts 289°
2026-05-07 21:20 51.46816 2.84571 32105 ft 412 kts 288°
2026-05-07 21:21 51.48818 2.75963 32104 ft 412 kts 288°
2026-05-07 21:21 51.50819 2.67349 32104 ft 412 kts 288°
2026-05-07 21:22 51.52812 2.58723 32102 ft 412 kts 288°
2026-05-07 21:22 51.54779 2.50141 32120 ft 412 kts 288°
2026-05-07 21:23 51.56752 2.41493 32119 ft 412 kts 288°
2026-05-07 21:23 51.58725 2.32845 32121 ft 412 kts 288°
2026-05-07 21:24 51.60694 2.24201 32122 ft 412 kts 288°
2026-05-07 21:24 51.62652 2.15545 32120 ft 412 kts 288°
2026-05-07 21:25 51.63636 2.11176 31995 ft 420 kts 288°
2026-05-07 21:25 51.64639 2.06715 30910 ft 430 kts 288°
2026-05-07 21:25 51.65650 2.02203 30367 ft 424 kts 288°
2026-05-07 21:25 51.66648 1.97764 29765 ft 419 kts 288°
2026-05-07 21:26 51.67634 1.93379 29193 ft 413 kts 288°
2026-05-07 21:26 51.68600 1.89060 28635 ft 408 kts 288°
2026-05-07 21:26 51.69553 1.84782 28073 ft 402 kts 288°
2026-05-07 21:26 51.70489 1.80561 27534 ft 398 kts 288°
2026-05-07 21:27 51.71414 1.76385 26991 ft 393 kts 288°
2026-05-07 21:27 51.72327 1.72247 26460 ft 389 kts 288°
2026-05-07 21:27 51.73229 1.68144 25927 ft 386 kts 288°
2026-05-07 21:27 51.74055 1.64059 25446 ft 381 kts 282°
2026-05-07 21:28 51.74465 1.59864 24947 ft 377 kts 272°
2026-05-07 21:28 51.74417 1.55643 24368 ft 376 kts 263°
2026-05-07 21:28 51.74140 1.51447 23800 ft 376 kts 263°
2026-05-07 21:28 51.73866 1.47250 23172 ft 376 kts 263°
2026-05-07 21:29 51.73597 1.43069 22611 ft 374 kts 263°
2026-05-07 21:29 51.73329 1.38905 22050 ft 372 kts 263°
2026-05-07 21:29 51.73063 1.34774 21498 ft 369 kts 263°
2026-05-07 21:29 51.72797 1.30672 20944 ft 367 kts 263°
2026-05-07 21:30 51.72527 1.26589 20397 ft 365 kts 263°
2026-05-07 21:30 51.72258 1.22532 19853 ft 363 kts 263°
2026-05-07 21:30 51.71990 1.18498 19312 ft 361 kts 263°
2026-05-07 21:30 51.71725 1.14536 18763 ft 359 kts 263°
2026-05-07 21:31 51.71457 1.10553 18217 ft 357 kts 263°
2026-05-07 21:31 51.71188 1.06586 17649 ft 354 kts 263°
2026-05-07 21:31 51.70917 1.02668 17123 ft 350 kts 262°
2026-05-07 21:31 51.70646 0.98786 16602 ft 347 kts 262°
2026-05-07 21:32 51.70378 0.94942 16157 ft 342 kts 262°
2026-05-07 21:32 51.70114 0.91129 15579 ft 343 kts 262°
2026-05-07 21:32 51.69850 0.87319 15033 ft 341 kts 262°
2026-05-07 21:32 51.69587 0.83530 14512 ft 339 kts 262°
2026-05-07 21:33 51.69326 0.79762 13999 ft 338 kts 262°
2026-05-07 21:33 51.69064 0.76010 13434 ft 336 kts 262°
2026-05-07 21:33 51.68800 0.72292 12920 ft 333 kts 262°
2026-05-07 21:33 51.68535 0.68603 12410 ft 330 kts 262°
2026-05-07 21:34 51.68274 0.64938 11902 ft 328 kts 262°
2026-05-07 21:34 51.68015 0.61299 11402 ft 326 kts 262°
2026-05-07 21:34 51.67757 0.57708 11139 ft 317 kts 262°
2026-05-07 21:34 51.67506 0.54254 11012 ft 305 kts 262°
2026-05-07 21:35 51.67263 0.50920 10891 ft 294 kts 262°
2026-05-07 21:35 51.67027 0.47684 10648 ft 288 kts 262°
2026-05-07 21:35 51.66793 0.44499 10309 ft 286 kts 263°
2026-05-07 21:35 51.66558 0.41312 9981 ft 284 kts 263°
2026-05-07 21:36 51.66327 0.38179 9709 ft 280 kts 263°
2026-05-07 21:36 51.66100 0.35078 9435 ft 278 kts 263°
2026-05-07 21:36 51.65872 0.32003 9184 ft 275 kts 263°
2026-05-07 21:36 51.65645 0.28949 9089 ft 275 kts 262°
2026-05-07 21:37 51.65493 0.26925 9100 ft 275 kts 262°
2026-05-07 21:37 51.65263 0.23871 9106 ft 275 kts 262°
2026-05-07 21:37 51.64953 0.19817 9106 ft 276 kts 262°
2026-05-07 21:37 51.64794 0.17749 9106 ft 275 kts 262°
2026-05-07 21:38 51.64562 0.14678 9108 ft 277 kts 263°
2026-05-07 21:38 51.64310 0.10600 9101 ft 273 kts 264°
2026-05-07 21:38 51.64202 0.08570 9108 ft 266 kts 264°
2026-05-07 21:38 51.64050 0.05609 9103 ft 265 kts 265°
2026-05-07 21:39 51.63897 0.02656 9111 ft 263 kts 264°
2026-05-07 21:39 51.63742 -0.00263 9088 ft 258 kts 264°
2026-05-07 21:39 51.63587 -0.03121 8847 ft 255 kts 265°
2026-05-07 21:39 51.63431 -0.05958 8584 ft 253 kts 265°
2026-05-07 21:40 51.63222 -0.09671 8237 ft 251 kts 264°
2026-05-07 21:40 51.63114 -0.11555 8063 ft 250 kts 264°
2026-05-07 21:40 51.62954 -0.14340 7806 ft 250 kts 264°
2026-05-07 21:40 51.62795 -0.17126 7550 ft 250 kts 264°
2026-05-07 21:41 51.62638 -0.19908 7297 ft 249 kts 264°
2026-05-07 21:41 51.62482 -0.22639 7131 ft 249 kts 264°
2026-05-07 21:41 51.62322 -0.25406 7079 ft 249 kts 264°
2026-05-07 21:41 51.62160 -0.28194 6950 ft 252 kts 264°
2026-05-07 21:42 51.61998 -0.30982 6702 ft 250 kts 264°
2026-05-07 21:42 51.61836 -0.33755 6453 ft 249 kts 264°
2026-05-07 21:42 51.61673 -0.36518 6187 ft 247 kts 264°
2026-05-07 21:42 51.61513 -0.39243 5956 ft 243 kts 264°
2026-05-07 21:43 51.61355 -0.41918 5747 ft 237 kts 264°
2026-05-07 21:43 51.61201 -0.44536 5541 ft 232 kts 264°
2026-05-07 21:43 51.61049 -0.47098 5339 ft 229 kts 264°
2026-05-07 21:43 51.60899 -0.49642 5131 ft 228 kts 264°
2026-05-07 21:44 51.60747 -0.52165 4946 ft 224 kts 263°
2026-05-07 21:44 51.60597 -0.54626 4809 ft 219 kts 263°
2026-05-07 21:44 51.60447 -0.57059 4689 ft 218 kts 263°
2026-05-07 21:44 51.60298 -0.59478 4552 ft 217 kts 263°
2026-05-07 21:45 51.60149 -0.61889 4424 ft 216 kts 263°
2026-05-07 21:45 51.60000 -0.64293 4290 ft 216 kts 263°
2026-05-07 21:45 51.59850 -0.66687 4162 ft 215 kts 263°
2026-05-07 21:45 51.59704 -0.69075 4062 ft 214 kts 263°
2026-05-07 21:46 51.59557 -0.71459 4000 ft 214 kts 263°
2026-05-07 21:46 51.59411 -0.73835 4007 ft 214 kts 263°
2026-05-07 21:46 51.59215 -0.76210 4002 ft 213 kts 251°
2026-05-07 21:46 51.58482 -0.78230 4006 ft 210 kts 222°
2026-05-07 21:47 51.57256 -0.79428 4003 ft 207 kts 194°
2026-05-07 21:47 51.55851 -0.79614 4021 ft 207 kts 175°
2026-05-07 21:47 51.54393 -0.79523 4024 ft 207 kts 176°
2026-05-07 21:47 51.52987 -0.79447 3941 ft 199 kts 176°
2026-05-07 21:48 51.51619 -0.79372 3813 ft 194 kts 176°
2026-05-07 21:48 51.50293 -0.79299 3684 ft 189 kts 176°
2026-05-07 21:48 51.49005 -0.79180 3560 ft 187 kts 166°
2026-05-07 21:48 51.47941 -0.78130 3433 ft 183 kts 124°
2026-05-07 21:49 51.47629 -0.76213 3340 ft 182 kts 89°
2026-05-07 21:49 51.47645 -0.74183 3213 ft 181 kts 91°
2026-05-07 21:49 51.47638 -0.72203 3029 ft 175 kts 91°
2026-05-07 21:49 51.47643 -0.70276 2813 ft 171 kts 91°
2026-05-07 21:50 51.47652 -0.68401 2597 ft 166 kts 91°
2026-05-07 21:50 51.47662 -0.66569 2375 ft 163 kts 91°
2026-05-07 21:50 51.47671 -0.64766 2156 ft 161 kts 91°
2026-05-07 21:50 51.47681 -0.62972 1941 ft 161 kts 91°
2026-05-07 21:51 51.47690 -0.61182 1721 ft 161 kts 91°
2026-05-07 21:51 51.47699 -0.59388 1501 ft 161 kts 91°
2026-05-07 21:51 51.47708 -0.57610 1277 ft 157 kts 91°
2026-05-07 21:51 51.47716 -0.55910 1075 ft 147 kts 91°
2026-05-07 21:52 51.47724 -0.54338 865 ft 137 kts 91°
2026-05-07 21:52 51.47730 -0.52841 679 ft 133 kts 91°
2026-05-07 21:52 51.47737 -0.51378 495 ft 130 kts 91°
2026-05-07 21:52 51.47743 -0.49933 316 ft 129 kts 91°
2026-05-07 21:53 51.47750 -0.48495 143 ft 129 kts 91°
2026-05-07 21:53 51.47756 -0.47144 87 ft 98 kts 89°
2026-05-07 21:53 51.47757 -0.46430 92 ft 43 kts 89°
2026-05-07 21:53 51.47692 -0.46127 89 ft 25 kts 146°
2026-05-07 21:54 51.47613 -0.46075 88 ft 11 kts 205°
2026-05-07 21:54 51.47595 -0.46207 86 ft 14 kts 270°
2026-05-07 21:54 51.47594 -0.46384 88 ft 18 kts 269°
2026-05-07 21:54 51.47593 -0.46601 86 ft 21 kts 269°
2026-05-07 21:55 51.47587 -0.46847 86 ft 21 kts 261°
2026-05-07 21:55 51.47582 -0.47091 90 ft 24 kts 269°
2026-05-07 21:55 51.47581 -0.47373 90 ft 26 kts 271°
2026-05-07 21:55 51.47581 -0.47665 91 ft 28 kts 269°
2026-05-07 21:56 51.47581 -0.47979 88 ft 28 kts 269°
2026-05-07 21:56 51.47578 -0.48293 91 ft 28 kts 269°
2026-05-07 21:56 51.47551 -0.48469 86 ft 14 kts 201°
2026-05-07 21:56 51.47444 -0.48475 86 ft 17 kts 179°
2026-05-07 21:57 51.47318 -0.48475 86 ft 19 kts 180°
2026-05-07 21:57 51.47179 -0.48474 86 ft 21 kts 179°
2026-05-07 21:57 51.47027 -0.48473 86 ft 22 kts 179°
2026-05-07 21:57 51.46906 -0.48472 89 ft 12 kts 183°
2026-05-07 21:58 51.46877 -0.48576 86 ft 12 kts 270°
2026-05-07 21:58 51.46878 -0.48707 86 ft 10 kts 270°
2026-05-07 21:58 51.46893 -0.48786 90 ft 7 kts 344°
2026-05-07 21:58 51.46925 -0.48787 88 ft 1 kts
2026-05-07 21:59 51.46930 -0.48787 89 ft 0 kts